カタログに戻る

INSAT 3B

運用中通信GEO
NORAD 26108·PAYLOAD·🇮🇳 India

打ち上げ Mar 21, 2000 から Guiana Space Centre

Loading…

TLE

最新Source: Space-Track

元期: Sep 14, 2026, 15:32 UTC

1 26108U 00016B   26257.64755468 -.00000084  00000-0  00000-0 0  9994
2 26108  11.0386  44.6595 0007830 210.5170 337.3893  0.99663857 52326

AllMySatでINSAT 3Bをリアルタイム追跡

Download on the App Store